Regional Weather Roundup
Issued by NWS

Home | Current Version | Previous Version | Graphics & Text | Print | Product List | Glossary On
Versions: 1 2 3 4 5 6 7 8 9 10 11 12 13 14 15 16 17 18 19 20 21 22 23 24 25 26 27 28 29 30 31 32 33 34 35 36 37 38 39 40 41 42 43 44 45 46 47 48 49 50
000
ASUS45 KCYS 212310
RWRWY

WYOMING REGIONAL WEATHER ROUNDUP
NATIONAL WEATHER SERVICE CHEYENNE WY
500 PM MDT THU SEP 21 2017

NOTE:  "FAIR" INDICATES FEW OR NO CLOUDS BELOW 12,000 FEET
WITH NO SIGNIFICANT WEATHER AND/OR OBSTRUCTIONS TO VISIBILITY.

WYZ001-220000-
YELLOWSTONE NATIONAL PARK

CITY           SKY/WX    TMP DP  RH WIND       PRES   REMARKS
LK YELLOWSTONE NOT AVBL
W YELLOWSTONE  NOT AVBL

$$
WYZ002>013-054>058-071-098>099-220000-
NORTHERN WYOMING

CITY           SKY/WX    TMP DP  RH WIND       PRES   REMARKS
JACKSON        CLOUDY    39  37  92 N7        29.80F WCI  34
CODY           NOT AVBL
GREYBULL       PTSUNNY   53  40  61 NW21      29.78R
WORLAND        CLOUDY    54  43  66 NW14      29.77R
SHERIDAN       CLOUDY    50  41  71 NW15      29.85R
BUFFALO        CLOUDY    51  39  63 NW14      29.84R
GILLETTE       FAIR      64  40  41 N14G23    29.77R
HULETT         FAIR      64  39  39 NE13      29.78S
NEWCASTLE      FAIR      77  32  19 NW14      29.68S

$$
WYZ014>020-022>026-101>103-220000-
CENTRAL WYOMING

CITY           SKY/WX    TMP DP  RH WIND       PRES   REMARKS
BIG PINEY      CLOUDY    61  36  39 S12       29.70F
PINEDALE       MOCLDY    57  36  44 E8        29.72F
DUBOIS         CLOUDY    46  39  76 NW7       29.76S
LANDER           N/A    N/A N/A N/A MISG      29.67R
RIVERTON       FAIR      58  41  53 N25G31    29.67R
CASPER         FAIR      70  38  31 N22G29    29.69R
DOUGLAS        FAIR      83  28  13 W12G23    29.66S

$$
WYZ021-027>030-104>119-220000-
SOUTHERN WYOMING

CITY           SKY/WX    TMP DP  RH WIND       PRES   REMARKS
EVANSTON       PTSUNNY   61  38  42 S16G23    29.67F
KEMMERER       LGT RAIN  52  43  71 CALM      29.72F
FORT BRIDGER   CLOUDY    62  39  42 NE5       29.72S
ROCK SPRINGS   FAIR      69  26  20 S29G38    29.67F
DIXON          FAIR      77  17  10 S24G40    29.77S
RAWLINS        FAIR      74  20  13 SW24G35   29.75S
SARATOGA       FAIR      75  18  11 S23G31    29.79S
LARAMIE        FAIR      77  15   9 S16G24    29.80F
CHEYENNE       FAIR      81  16   9 S10G20    29.76F
TORRINGTON     FAIR      87  33  14 E20G26    29.62F
PINE BLUFFS    FAIR      86  19   8 SE8G17    29.71S

$$



USA.gov is the U.S. government's official web portal to all federal, state and local government web resources and services.